Home > Time Zones > World Clock > Weather > India > Thane > Past weeks

Flag for India Weather past 2 weeks in Thane, Maharashtra, India

Now
81 °F

Clear.


Feels Like: 80 °F
Forecast: 68 / 90 °F
Wind: 10 mph from East

Location: Bombay / Santacruz

Current Time: Jan 31, 2015 at 11:02:38 AM

Latest Report: Jan 31, 2015 at 9:40 AM


Visibility: 2 mi

Pressure: 30.01 "Hg

Humidity: 34%

Dew point: 50 °F

Location of ThaneLocation

Historic Weather in Thane — Graph

°F

Thane temperature yesterday

Maximum temperature yesterday: 90 °F (at 1:40 PM)
Minimum temperature yesterday: 73 °F (at 1:40 AM)
Average temperature yesterday: 81 °F

Past Weeks' High & Low Weather Summary

 TemperatureHumidityPressure
High90 °F (Jan 30, 1:40 PM)94% (Jan 20, 4:40 AM)30.09 "Hg (Jan 20, 4:40 AM)
Low68 °F (Jan 27, 5:40 AM)25% (Jan 17, 1:40 PM)29.80 "Hg (Jan 28, 2:40 PM)
Average77 °F57%29.96 "Hg
* Reported Jan 16 9:40 AM — Jan 31 9:40 AM, Thane, Weather by CustomWeather, © 2014

Note: Actual official high and low records may vary slightly from our data, if they occured in-between our weather recording intervals... More about our weather records

Advertising

Thane weather history for previous 24 hours

 ConditionsComfort  
Time TempWeatherWind HumidityBarometerVisibility
9:40 AM
Jan 31
81 °FClear.10 mph34%30.01 "Hg2 mi
8:40 AM77 °FClear.9 mph36%30.01 "Hg1 mi
7:40 AM75 °FClear.6 mph39%29.98 "Hg1 mi
6:40 AM73 °FClear.3 mph41%29.95 "Hg1 mi
5:40 AM75 °FClear.5 mph39%29.95 "Hg1 mi
4:40 AM77 °FClear.8 mph36%29.92 "Hg1 mi
3:40 AM79 °FClear.10 mph37%29.95 "Hg1 mi
2:40 AM79 °FClear.9 mph37%29.95 "Hg1 mi
1:40 AM79 °FClear.8 mph39%29.95 "Hg1 mi
12:40 AM81 °FClear.9 mph39%29.95 "Hg1 mi
11:40 PM
Jan 30
82 °FClear.3 mph40%29.98 "Hg1 mi
10:40 PM81 °FClear.No wind48%29.98 "Hg1 mi
9:40 PM81 °FClear.No wind51%29.98 "Hg1 mi
8:40 PM81 °FClear.No wind51%29.98 "Hg1 mi
7:40 PM82 °FClear.6 mph48%29.95 "Hg2 mi
6:40 PM84 °FClear.6 mph43%29.92 "Hg2 mi
5:40 PM86 °FClear.7 mph46%29.92 "Hg2 mi
4:40 PM88 °FClear.7 mph43%29.92 "Hg2 mi
3:40 PM86 °FClear.10 mph40%29.92 "Hg3 mi
2:40 PM88 °FClear.5 mph25%29.95 "Hg3 mi
1:40 PM90 °FClear.10 mph31%29.98 "Hg2 mi
12:40 PM88 °FClear.13 mph35%30.01 "Hg2 mi
11:40 AM84 °FClear.10 mph40%30.01 "Hg2 mi
Weather by CustomWeather, © 2014

See weather overviewHow to use our weather pages